Location: Pinon Hills
(34.4429°N, 117.6403°W)
Time: 21:19:15
(UTC-07:00)

Daily predictions for brighter satellites

Satellite Brightness Start Highest point End
(mag) Time Altitude Azimuth Time Altitude Azimuth Time Altitude Azimuth
Cosmos 1862 Rocket 4.1 19:54:51 10° SSE 19:58:59 38° E 20:03:09 10° NNE
Cosmos 2142 Rocket 4.5 19:53:05 10° S 19:59:12 78° E 20:05:22 10° N
CZ-2D R/B 3.9 19:57:43 10° SE 20:01:18 37° ENE 20:04:55 10° N
Meteor 2-10 Rocket 4.5 20:00:17 10° SSE 20:05:23 33° E 20:10:28 10° NNE
Spot 2 Rocket 3.7 20:02:16 10° SSE 20:07:14 56° ENE 20:12:13 10° N
Cosmos 2026 Rocket 4.0 20:01:09 10° N 20:07:16 61° E 20:13:16 10° SSE
Lacrosse 4 Rocket 2.1 20:08:42 10° NNW 20:13:00 58° WSW 20:17:22 10° S
Cosmos 1503 Rocket 4.2 20:09:28 10° NNW 20:14:42 77° WSW 20:19:51 10° S
Cosmos 2333 Rocket 4.0 20:13:52 10° ESE 20:15:05 11° E 20:16:18 10° E
Helios 1B rocket 3.1 20:12:53 10° NNE 20:16:38 34° E 20:20:22 10° SSE
ALOS 3.2 20:13:07 10° S 20:17:38 50° W 20:22:11 10° NNW
USA 186 1.9 20:19:50 10° SSE 20:22:32 45° ENE 20:25:26 10° N
Cosmos 1354 Rocket 4.5 20:17:22 10° NNW 20:22:34 63° WSW 20:27:43 10° S
FENGYUN 3A 4.5 20:17:29 10° S 20:22:41 53° W 20:27:55 10° NNW
Meteor 1-29 3.7 20:23:25 10° NE 20:26:31 31° E 20:29:35 10° SSE
Resurs 1-3 3.6 20:22:10 10° SSE 20:26:33 87° E 20:30:58 10° NNW
Envisat 3.6 20:23:08 11° SE 20:27:37 38° ENE 20:32:17 10° N
Cosmos 2219 Rocket 3.4 20:24:11 10° SE 20:27:59 19° E 20:31:48 10° ENE
Cosmos 1933 3.4 20:31:37 10° S 20:35:37 78° W 20:39:39 10° N
Intercosmos 25 Rocket 4.3 20:34:41 10° SSW 20:37:49 47° WNW 20:41:52 10° N
SEDSat Delta rocket 3.6 20:33:14 10° W 20:37:56 56° S 20:41:39 19° ESE
Chunghua 1 4.4 20:37:28 10° WSW 20:41:11 85° S 20:43:44 19° E
ERS-1 Rocket 4.2 20:41:58 19° ESE 20:44:07 25° ENE 20:48:07 10° NNE
Spot 1 4.5 20:42:38 12° SSE 20:47:18 70° ENE 20:52:18 10° N
Cosmos 1867 3.6 20:42:38 10° NNW 20:48:05 70° ENE 20:51:40 22° SE
Cosmos 1862 3.9 20:45:09 10° NNW 20:49:07 58° W 20:53:06 10° S
Tiangong 1 3.3 20:49:16 10° SSW 20:49:30 11° S 20:49:30 11° S
Cosmos 2263 Rocket 2.6 20:46:22 10° NNW 20:51:51 61° WSW 20:57:21 10° S
Cosmos 1782 4.3 20:54:00 20° ENE 20:54:00 20° ENE 20:56:27 10° NE
Sakura Rocket 3.4 20:50:39 10° WSW 20:53:59 35° S 20:55:01 29° SE
Cosmos 2221 Rocket 3.9 20:51:30 21° SSE 20:54:02 43° E 20:58:14 10° NNE
Cosmos 1825 4.2 20:52:19 10° NNW 20:55:36 28° W 20:58:52 10° SSW
Cosmos 2266 Rocket 4.2 20:50:44 10° N 20:56:54 52° E 21:00:58 22° SSE
Meteor 1-26 Rocket 4.2 20:54:46 10° S 21:00:27 89° E 21:06:18 10° N
NOSS 3-1 (C) 3.3 20:57:45 10° SSW 21:03:14 56° ESE 21:09:15 10° NE
Cosmos 2360 Rocket 3.6 21:04:40 10° SW 21:09:55 39° WNW 21:15:13 10° N
USA 229 DEB 4.5 21:04:25 10° SW 21:11:02 54° NW 21:17:49 10° NNE
USA 229 4.5 21:04:31 10° SW 21:11:09 54° NW 21:17:55 10° NNE
CZ-4B DEB 2.9 21:10:53 47° SSW 21:11:34 66° W 21:14:34 10° NNW
Resurs 01 Rocket 3.9 21:09:19 10° SSW 21:12:50 23° W 21:16:22 10° NW
Cosmos 1908 Rocket 3.6 21:09:25 10° N 21:13:45 79° W 21:16:04 27° S
Cosmos 1939 Rocket 2.9 21:12:42 32° S 21:14:30 80° WSW 21:18:30 10° NNW
Helios 1A 3.7 21:11:45 17° S 21:14:51 52° W 21:19:01 10° NNW
FALCON 9 R/B 1.5 21:14:58 10° W 21:16:31 36° W 21:16:31 36° W
SJ-11-01 4.3 21:14:35 25° S 21:17:16 76° WSW 21:21:57 10° NNW
ATLAS 5 CENTAUR R/B 2.9 21:13:02 10° NW 21:19:06 58° WSW 21:23:14 23° S
COSMOS 2428 2.8 21:13:56 10° SSW 21:19:35 77° WNW 21:25:19 10° NNE
YAOGAN 6 2.5 21:20:29 66° E 21:20:36 67° ENE 21:24:10 10° N
NOSS 3-1 (A) 3.3 21:15:37 10° SSW 21:21:06 55° ESE 21:27:08 10° NE
Cosmos 1606 4.1 21:23:21 26° NE 21:23:21 26° NE 21:25:23 10° NNE
ARGOS 4.0 21:22:45 31° E 21:23:25 32° ENE 21:28:08 10° N
Cosmos 1980 4.2 21:23:56 37° E 21:23:56 37° E 21:28:46 10° NE
Okean 1-7 3.0 21:22:12 31° S 21:24:19 89° WNW 21:28:44 10° N
Cosmos 1782 Rocket 3.4 21:24:18 10° N 21:28:42 86° E 21:29:35 57° SSE
Cosmos 1777 Rocket 3.9 21:23:28 10° NNW 21:28:44 72° ENE 21:30:02 50° SE
Sich 1 Rocket 4.4 21:25:47 10° NNW 21:30:09 50° W 21:32:40 23° SSW
Cosmos 1844 4.2 21:25:31 10° N 21:30:50 41° ENE 21:31:42 39° E
Atlas Centaur 2 2.8 21:29:28 10° W 21:35:50 58° S 21:38:05 43° SE
OAO 1 Rocket 4.3 21:32:05 10° WSW 21:37:26 81° SSE 21:38:34 56° E
Meteor 1-10 Rocket 4.2 21:36:26 42° SSE 21:38:24 69° E 21:44:14 10° NNE
OAO 3 Rocket 4.2 21:35:25 10° W 21:39:47 33° SSW 21:39:50 33° SSW
USA 245 4.3 21:42:53 49° ENE 21:42:59 49° ENE 21:47:34 10° N
Milstar 3 3.7 21:37:26 10° W 21:44:06 31° SSW 21:45:23 29° S
MetOp-A 4.0 21:45:01 62° SE 21:45:46 73° ENE 21:51:07 10° N
Meteor 1-25 Rocket 4.2 21:43:23 10° NNW 21:48:56 76° W 21:50:28 48° SSW
Nadezhda 2 Rocket 4.4 21:43:18 10° N 21:49:46 85° E 21:51:34 50° SSE
Okean 2 Rocket 3.1 21:45:29 10° N 21:49:59 77° W 21:50:07 76° WSW
Cosmos 2237 Rocket 2.2 21:50:19 59° E 21:50:19 59° E 21:55:37 10° NNE
Cosmos 1844 Rocket 2.5 21:46:54 10° NNW 21:52:30 87° ENE 21:53:10 70° SSE
Meteor 1-20 Rocket 4.2 21:47:39 10° N 21:53:18 79° W 21:54:38 54° S
MOS 1-B Rocket 3.9 21:53:27 59° E 21:53:59 62° ENE 21:59:31 10° N
Nimbus 7 Rocket 4.3 21:52:28 10° NNE 21:58:27 71° ESE 21:58:59 67° SE
Cosmos 2333 Rocket 2.2 21:55:34 30° SSW 21:58:30 81° WNW 22:04:18 10° NNE
Cosmos 2278 Rocket 2.9 21:54:16 10° N 21:59:16 38° ENE 21:59:16 38° ENE
CZ-4C R/B 3.5 21:53:47 10° NNW 22:00:41 44° NE 22:02:18 39° E
S3M 4.0 22:03:20 58° E 22:03:20 58° E 22:09:10 10° NNE
H-2A R/B 3.7 14:20:35 10° SSW 22:06:04 67° SSW 22:08:56 48° SE
USA 234 3.3 22:04:59 57° E 22:06:14 70° NE 22:12:44 10° NW
Meteor 2-6 Rocket 4.5 22:06:15 48° SSW 22:07:57 73° W 22:13:55 10° N
Cosmos 2219 Rocket 3.0 22:06:06 10° SW 22:11:28 47° WNW 22:16:53 10° N
SPOT 5 3.2 22:16:20 59° NW 22:16:20 59° NW 22:20:09 10° NNW
SeaSat 1 3.4 22:18:21 40° NNE 22:18:21 40° NNE 22:22:00 10° N
ERS-1 Rocket 4.3 22:21:58 30° WSW 22:22:41 31° W 22:27:08 10° NW
H-2A R/B 2.7 22:27:57 48° N 22:27:57 48° N 22:31:30 10° N
H-2A R/B 4.1 22:41:39 24° N 22:41:39 24° N 22:43:27 10° N
Cosmos 1745 Rocket 4.1 22:33:00 10° N 22:38:38 71° NNE 22:38:38 71° NNE
Terra 3.5 22:50:16 30° N 22:50:16 30° N 22:52:39 10° N
ATLAS 2AS CENTAUR R/B 3.3 23:14:13 58° NE 23:14:13 58° NE 23:20:31 10° NNE
SL-16 R/B 3.6 23:16:59 34° N 23:16:59 34° N 23:20:16 10° NNE
ATLAS 3B R/B 3.8 23:32:49 10° NNW 23:37:42 35° NNE 23:37:42 35° NNE
Cosmos 2278 Rocket 4.3 23:38:53 10° NW 23:41:08 19° WNW 23:41:08 19° WNW
CZ-4C R/B 4.0 23:42:26 10° NW 23:47:30 35° W 23:47:30 35° W
